Theta_e
317 316 315 314 313 313 312 311 309 308 307 307 306 305 305 304 304 304 305 305 304 305 305 307 310 310 307 313 315 315 314 315 315 316 315 314 313 315 314 313 313 312 312 312 313 314 314
318 317 315 315 313 313 312 311 309 307 307 306 304 304 305 304 304 304 304 304 304 304 307 309 311 310 308 319 314 315 315 314 315 316 316 316 315 316 315 314 313 313 313 313 314 314 314
319 318 316 315 314 313 312 311 309 308 306 305 304 303 304 303 303 304 304 304 304 305 309 310 312 312 309 316 316 314 314 314 315 316 317 317 316 315 315 314 315 314 312 313 313 312 312
318 318 317 316 315 313 312 311 309 308 306 303 303 303 303 303 303 304 304 304 304 309 310 311 313 313 311 312 317 314 314 314 316 317 317 317 316 315 315 315 314 312 310 312 313 312 315
319 317 318 317 316 314 312 311 309 309 306 302 301 302 302 303 303 304 304 304 309 311 312 313 312 315 317 317 315 314 314 315 316 317 317 316 315 315 314 312 312 309 311 312 315 313 313
318 318 317 317 317 315 313 311 310 309 305 301 300 302 302 302 302 304 304 307 310 310 311 312 312 314 315 315 315 314 314 314 316 317 316 316 315 310 309 311 314 313 312 313 314 313 313
316 316 316 315 317 316 314 311 310 309 304 300 300 301 301 302 302 303 305 310 312 315 313 313 314 314 314 313 313 313 314 316 317 317 314 311 310 310 310 310 311 312 314 315 314 313 314
314 315 315 315 316 316 315 312 310 309 305 299 300 300 300 301 302 303 310 317 317 317 317 315 314 314 313 313 312 313 314 317 317 315 312 310 310 310 310 311 314 314 315 315 314 314 314
308 315 315 314 315 315 316 313 310 309 306 299 299 299 300 301 303 304 316 315 314 316 316 317 313 313 312 313 312 312 314 315 313 313 312 311 311 311 310 310 312 311 314 314 315 314 313
299 308 315 315 315 314 316 314 310 310 307 300 299 299 300 303 304 305 313 315 316 314 313 316 313 313 312 314 311 312 312 314 313 311 310 310 310 311 311 311 309 311 310 314 315 315 316
295 298 308 313 313 314 315 315 310 310 308 300 298 298 300 305 309 311 313 314 315 316 308 316 311 312 312 313 311 311 312 312 310 310 312 310 310 310 311 312 311 311 312 314 313 312 313
294 295 298 309 312 313 313 315 311 310 308 301 298 298 302 308 311 314 314 313 312 307 306 314 312 311 311 311 311 310 312 312 310 309 308 309 310 310 311 311 314 313 312 312 311 311 312
294 295 296 302 311 312 311 314 310 310 308 301 298 298 304 308 314 316 316 312 308 305 311 312 312 311 311 311 311 309 308 308 310 309 309 308 308 308 311 313 313 310 310 311 314 310 313
294 295 296 299 308 311 312 313 310 310 308 300 298 300 307 309 313 317 315 308 300 307 317 311 310 310 310 311 309 309 309 307 308 310 308 307 310 310 312 314 314 314 309 310 315 316 316
293 295 296 301 308 311 313 312 310 310 307 298 299 307 310 308 314 317 314 303 305 311 313 311 311 311 311 311 309 308 308 309 309 308 310 308 310 313 312 312 312 315 314 312 312 310 312
293 294 296 305 307 309 312 311 310 309 305 297 303 312 314 307 311 316 307 307 313 312 311 312 311 311 310 311 310 309 308 308 309 309 307 307 310 313 314 312 311 313 311 313 308 304 304
293 293 295 303 308 310 310 310 310 309 302 297 308 314 316 311 309 318 305 309 312 310 311 312 312 311 311 310 310 309 309 307 307 308 309 308 307 312 312 312 312 310 311 309 307 299 301
293 293 294 298 307 309 310 310 310 308 299 299 308 312 313 312 316 310 309 310 309 309 311 310 310 311 310 310 310 309 309 308 307 308 309 310 309 312 314 312 311 311 309 304 304 309 296
292 292 293 295 304 308 309 309 310 306 297 300 309 312 312 315 311 308 307 308 308 309 308 309 310 309 307 308 309 308 305 306 307 308 311 309 310 311 311 311 311 313 309 308 301 298 301
292 292 293 294 301 307 309 309 309 305 297 298 311 306 312 312 314 305 307 308 308 308 308 309 309 307 306 307 306 306 306 307 307 309 311 311 309 309 309 310 309 311 309 308 305 299 302
292 293 292 293 299 304 307 308 308 305 296 298 306 309 306 307 308 307 307 307 307 307 308 308 308 308 307 308 308 307 307 307 307 308 310 308 310 309 309 308 307 307 308 307 306 305 305
293 293 291 292 297 302 306 308 308 305 296 297 305 312 312 308 310 306 305 306 306 309 307 308 306 305 306 308 307 308 307 305 305 306 312 309 312 309 310 308 308 308 307 308 308 309 310
293 291 291 292 296 302 305 307 307 304 295 298 304 310 312 308 306 306 305 307 308 307 307 306 304 303 303 303 306 307 308 308 307 306 311 309 310 310 314 310 309 310 310 307 308 307 310
291 290 290 291 294 299 305 308 307 305 295 298 309 310 312 306 305 306 308 308 308 308 306 307 305 303 306 306 305 305 305 306 307 307 308 309 308 308 314 313 310 310 309 308 308 308 307
290 290 290 291 294 298 304 307 307 305 297 295 301 307 308 305 307 307 307 306 307 308 307 307 306 304 305 307 303 301 301 302 302 306 308 309 308 309 312 310 309 312 310 309 308 308 307
290 291 291 292 293 297 302 307 307 305 297 295 297 299 304 305 305 307 305 306 304 303 305 308 307 306 309 299 299 301 303 303 305 305 307 307 307 308 303 307 303 304 308 308 308 305 307
292 293 292 292 294 297 303 306 307 305 297 295 296 301 311 307 307 307 305 305 306 304 302 306 308 308 304 298 301 301 303 304 306 309 307 305 304 304 298 309 306 309 309 309 310 305 308
293 292 292 292 294 297 304 306 307 305 296 295 298 304 308 307 307 307 306 305 304 307 304 307 304 304 299 299 300 301 302 303 307 307 307 306 307 307 303 302 302 309 310 309 307 309 310
293 291 292 292 294 299 304 306 307 303 294 295 300 308 309 307 307 307 306 305 305 308 307 305 303 302 301 298 299 300 303 299 303 307 307 308 306 308 306 306 307 309 309 309 309 311 311
Wind_Speed
11 12 12 13 13 16 18 18 19 19 17 16 14 12 14 13 14 15 13 14 15 14 13 10 8 6 2 2 1 6 1 2 3 2 2 1 3 4 2 2 1 2 3 11 14 22 23
13 12 13 13 14 16 19 21 20 20 19 17 15 13 13 11 14 14 14 13 13 13 11 7 6 4 3 1 3 3 3 4 5 6 4 4 2 4 1 2 2 3 21 14 21 21 20
15 14 14 13 14 16 18 21 21 23 23 19 15 13 12 12 13 14 13 13 11 10 8 6 5 3 6 7 5 2 3 4 6 7 9 6 6 6 2 2 1 9 7 14 21 17 6
18 15 14 15 14 15 18 20 21 23 26 18 14 14 12 12 13 13 14 12 10 6 5 3 3 3 5 4 4 3 5 7 3 4 0 4 5 5 3 1 4 4 5 4 9 16 11
21 18 16 15 15 15 17 20 21 23 26 18 13 13 12 13 13 12 12 9 5 2 2 2 2 3 3 1 4 3 5 4 2 1 1 2 3 1 2 5 4 7 3 6 5 19 3
19 21 19 16 15 15 17 19 20 23 26 17 15 11 13 13 13 11 9 3 1 3 3 2 3 4 1 0 4 4 5 3 1 1 6 2 3 3 4 3 3 3 6 5 5 7 18
20 20 19 20 15 14 17 19 20 23 25 18 15 11 12 12 12 10 3 2 3 3 4 4 2 4 4 6 5 3 5 3 4 3 3 7 7 3 3 2 5 8 7 13 2 4 8
20 22 18 18 17 14 16 18 20 21 24 19 13 12 12 11 9 6 3 5 7 4 7 7 8 7 5 4 2 4 4 4 4 4 4 7 4 2 3 7 10 11 15 4 4 6 7
19 20 20 22 20 15 16 18 19 21 23 19 15 12 11 10 7 1 6 5 3 4 3 4 5 4 2 1 3 8 5 5 6 4 4 6 2 2 3 5 10 2 6 5 6 5 4
19 21 19 19 19 16 16 17 18 20 21 19 16 13 11 7 2 3 8 3 4 3 4 4 2 1 1 2 2 11 6 3 5 8 8 7 4 4 6 5 3 3 5 8 14 4 2
17 21 22 22 19 17 16 17 17 19 21 19 15 13 10 6 2 4 4 3 3 2 3 4 2 3 2 3 2 8 12 8 4 3 4 1 2 4 6 1 2 2 4 8 4 5 4
16 17 20 22 21 20 18 16 17 18 19 17 14 13 8 7 1 4 4 5 1 6 4 0 1 2 5 5 4 3 7 12 4 8 8 4 2 3 1 2 3 5 7 7 5 3 3
16 16 16 21 21 19 19 16 16 18 19 16 13 12 9 6 2 4 3 5 5 5 3 2 2 2 3 4 5 6 5 6 3 5 3 4 4 4 2 1 4 5 4 3 3 4 3
16 16 15 19 19 17 17 16 15 17 19 14 12 11 10 5 5 3 4 5 5 4 4 1 3 3 3 2 4 5 3 3 5 4 3 5 1 5 4 2 2 3 4 4 6 4 3
16 15 16 15 16 17 16 15 14 15 18 13 11 9 6 3 8 4 3 4 7 5 3 1 2 3 2 2 5 4 3 2 2 4 4 4 2 1 6 3 2 2 3 4 6 3 2
16 15 14 10 14 18 16 15 14 14 16 11 8 6 1 5 7 5 4 4 2 3 3 1 4 2 4 3 3 3 1 1 1 2 1 5 4 2 1 1 9 4 3 3 3 3 1
15 15 14 13 13 17 19 15 13 12 13 8 4 2 2 6 8 3 3 5 3 1 1 2 3 2 2 2 3 2 1 1 0 2 2 3 4 2 3 5 2 3 3 5 5 3 5
14 14 13 12 12 14 19 15 12 9 9 4 2 1 4 11 3 2 3 4 1 2 6 4 4 4 3 3 3 3 2 1 1 1 3 1 4 3 1 1 3 3 3 4 4 4 1
14 13 13 13 15 12 17 15 11 8 6 2 1 0 5 10 3 1 3 2 3 3 4 4 3 4 5 4 4 2 2 1 2 1 3 4 2 3 5 3 2 3 2 2 3 3 2
14 12 13 13 12 12 14 16 10 9 6 5 1 1 3 6 2 4 4 2 3 4 5 4 4 4 5 4 6 4 2 1 3 4 6 5 3 2 5 3 3 4 2 2 2 3 4
13 12 13 13 11 12 12 16 11 9 6 6 3 3 1 3 3 3 3 3 3 3 4 9 4 4 3 3 3 3 3 2 5 2 4 4 4 3 6 6 7 4 5 4 4 3 4
14 14 14 13 12 12 12 16 12 9 8 9 2 2 3 2 5 6 2 1 3 4 6 3 6 5 4 5 2 4 5 5 3 4 3 3 4 2 6 6 10 13 9 7 7 5 6
15 17 15 13 12 14 14 17 13 11 10 6 1 4 3 2 4 5 4 5 4 10 14 13 12 11 16 5 28 30 31 21 10 4 2 3 5 2 3 4 3 9 7 6 4 4 2
17 19 16 14 13 15 16 18 14 13 12 7 2 5 2 2 3 3 3 5 5 1 9 2 10 8 16 29 23 19 23 27 28 18 7 4 3 3 3 2 3 1 4 1 2 3 5
19 20 16 16 15 18 19 20 17 16 14 15 9 4 5 1 7 6 8 13 20 23 8 6 8 29 17 9 5 6 5 6 7 13 16 8 4 4 3 3 2 1 1 1 2 2 1
19 18 16 17 17 19 21 22 18 17 15 15 13 9 7 2 1 9 9 11 6 4 5 5 13 17 4 6 4 3 2 3 5 5 14 8 8 3 2 4 4 4 0 1 1 3 6
19 19 19 19 17 18 23 23 19 16 16 14 8 6 3 3 6 9 4 6 11 6 4 3 5 4 4 3 3 2 1 2 3 3 5 3 3 3 2 4 2 1 2 1 1 4 10
19 19 20 18 16 20 23 24 20 16 15 13 7 10 3 2 7 5 6 8 11 10 5 13 5 1 4 4 3 1 3 1 3 3 2 3 3 3 3 4 1 2 1 1 4 4 9
20 20 21 20 16 27 23 25 20 17 17 13 10 7 8 3 12 14 10 9 5 10 15 13 3 6 6 5 2 4 3 2 2 2 2 2 1 1 1 2 2 3 0 4 5 10 14
Wind_Direction
284 298 310 321 331 337 341 343 340 334 328 310 303 303 298 304 307 309 312 311 309 308 304 305 314 326 285 243 157 173 132 348 352 313 284 335 205 168 188 186 214 195 339 57 79 96 79
279 288 299 312 324 333 337 340 342 337 329 318 311 302 296 306 309 310 312 310 305 306 299 302 310 320 211 207 127 173 238 305 308 303 289 272 263 188 277 210 175 87 74 57 63 56 64
274 282 290 302 317 328 334 338 339 338 338 326 318 300 299 309 310 312 313 307 303 301 290 300 297 297 240 177 174 236 286 310 298 300 280 277 246 232 153 221 231 121 100 47 12 354 27
266 274 284 294 311 323 329 335 337 337 338 331 314 305 307 309 313 313 313 305 301 292 284 290 295 291 255 183 200 293 299 301 283 293 109 256 228 242 205 292 24 68 57 69 357 358 17
254 262 275 284 299 317 326 330 335 336 337 331 320 307 311 311 315 315 315 308 290 290 287 261 294 300 269 242 196 242 322 296 334 124 172 264 181 108 71 95 30 16 84 36 20 11 62
244 253 261 275 292 310 319 324 332 337 337 330 322 312 313 315 316 320 320 291 225 295 276 221 266 309 321 224 293 285 307 263 193 152 128 165 65 53 37 81 188 161 114 51 59 354 70
252 247 256 269 278 301 311 320 331 338 337 330 323 315 313 315 317 330 336 197 322 297 248 243 268 267 310 325 284 245 323 164 161 105 104 29 69 83 336 359 97 95 90 111 147 175 61
257 251 257 263 271 290 304 315 326 336 336 329 324 317 317 318 325 332 75 82 59 333 310 254 264 268 291 323 346 11 343 151 140 102 82 46 75 321 69 66 93 108 115 94 66 79 87
253 251 256 255 263 282 298 310 321 332 335 328 323 320 320 325 328 357 123 97 39 2 269 285 226 256 239 70 32 355 24 97 87 70 80 108 125 35 91 70 107 98 127 165 142 91 76
267 253 247 249 255 274 288 303 314 324 332 326 321 322 327 333 300 164 153 114 32 6 45 277 196 219 191 161 69 25 30 76 76 117 95 84 2 97 72 78 98 94 119 123 135 108 140
280 264 250 250 252 262 276 294 305 318 329 323 318 318 326 321 288 152 178 177 12 62 23 275 175 143 118 101 321 1 25 65 61 95 106 203 91 88 76 357 153 145 110 136 118 93 104
296 281 260 247 251 255 264 283 297 311 320 319 315 311 313 316 260 184 178 199 138 46 266 263 144 86 75 44 41 3 60 78 73 61 48 99 116 78 144 45 35 133 84 59 66 77 48
303 294 273 251 245 250 262 273 288 305 314 316 309 302 297 298 187 197 177 162 45 116 299 221 158 96 80 34 45 35 38 26 74 101 60 24 353 336 73 105 25 69 70 39 32 12 241
309 302 283 246 245 250 256 266 281 299 312 312 299 294 289 285 209 201 162 62 96 227 245 9 108 98 108 127 29 28 71 58 27 61 108 136 16 359 2 77 181 72 132 146 191 196 200
306 305 296 253 237 242 250 267 278 295 307 307 299 298 302 222 191 184 170 68 202 207 285 235 72 100 92 67 117 85 59 98 59 34 132 128 133 151 70 45 55 188 62 134 105 11 103
302 306 305 251 244 233 238 257 268 289 305 310 307 316 294 176 180 166 77 211 222 228 306 219 157 144 183 194 91 80 151 277 45 69 142 192 119 5 124 33 35 94 114 87 26 126 214
298 307 310 243 233 222 232 242 257 284 297 308 314 325 137 164 158 155 153 223 236 284 312 21 181 116 124 133 87 71 126 348 67 320 121 134 100 299 48 26 294 3 75 55 110 112 150
289 301 307 269 245 224 228 230 245 276 283 293 291 26 165 160 113 64 168 201 142 359 34 37 88 66 100 79 74 78 107 33 292 235 102 73 113 87 156 259 79 83 126 134 124 223 79
279 293 299 298 234 230 223 229 244 261 259 240 303 325 165 170 139 247 265 73 67 33 38 24 52 50 47 85 91 104 124 167 13 84 146 168 79 95 354 346 59 80 97 129 127 87 199
274 287 293 302 244 230 216 223 242 249 231 207 260 65 153 206 230 154 138 116 95 49 65 43 43 81 75 49 27 140 116 76 71 82 95 93 77 147 185 160 123 113 39 191 55 98 170
270 283 295 303 251 234 227 218 232 242 220 192 233 255 174 202 255 160 91 128 121 48 45 39 54 38 144 116 64 81 57 92 61 64 56 88 91 80 51 68 86 88 67 88 88 144 102
268 282 292 297 254 229 224 212 223 235 211 212 239 346 348 303 144 113 55 124 122 147 15 17 87 23 61 96 132 161 134 32 51 348 82 24 118 23 53 59 87 68 33 59 50 42 63
266 279 286 290 263 226 220 206 217 223 198 198 235 316 291 318 121 111 197 160 146 128 35 105 112 82 79 75 97 92 87 76 63 50 71 70 129 85 102 197 48 52 18 28 64 52 55
267 274 281 285 271 233 216 205 207 221 210 197 67 345 313 256 100 156 122 98 116 70 133 92 108 107 135 108 94 82 65 58 46 29 34 106 84 64 118 359 51 250 316 33 71 67 23
263 268 276 282 275 234 217 208 204 215 214 214 216 29 2 94 110 78 90 110 94 92 76 82 87 131 135 106 57 39 4 23 6 31 30 52 88 88 114 76 147 60 348 16 9 339 298
260 269 273 283 277 237 220 208 205 214 218 214 218 253 286 155 253 128 102 129 121 114 34 75 112 152 124 71 59 74 57 323 11 11 54 40 59 77 59 97 161 237 220 182 310 356 316
259 267 269 284 276 239 217 203 208 211 218 214 205 215 243 118 141 138 117 169 143 108 101 124 141 105 75 68 67 91 68 64 47 16 348 16 7 75 20 91 6 138 245 170 70 232 318
258 264 269 288 266 221 214 200 207 208 212 207 198 210 225 101 125 123 134 151 146 139 142 160 97 342 61 73 105 129 91 93 95 31 26 39 32 34 24 76 324 218 253 208 225 312 331
257 269 275 288 268 212 207 199 203 202 202 196 199 212 182 95 113 102 107 149 154 156 157 152 136 144 149 96 91 113 83 60 125 108 5 79 52 79 93 165 261 314 263 56 307 318 318